Skip Page Navigation
NASA JPL Caltech
NASA Logo - Jet Propulsion Laboratory + View the NASA Portal
+ Center for Near-Earth Object Studies
JPL Home Earth Solar System Stars & Galaxies Technology
JPL Solar System Dynamics
BODIES ORBITS EPHEMERIDES TOOLS PHYSICAL DATA DISCOVERY FAQ SITE MAP
JPL Small-Body Database Browser
Search: [ help ]  
17282 (2000 LS34)
Classification: Main-belt Asteroid          SPK-ID: 2017282
Ephemeris | Orbit Diagram | Orbital Elements | Mission Design | Physical Parameters | Discovery Circumstances | Close-Approach Data ]

[ hide orbit diagram ]

For accurate long-term ephemerides, please instead use our Horizons system.This orbit viewer was implemented using two-body methods, and hence should not be used for determining accurate long-term trajectories (over several years or decades) or planetary encounter circumstances.


Orbital Elements at Epoch 2459000.5 (2020-May-31.0) TDB
Reference: JPL 34 (heliocentric ecliptic J2000)
 Element Value Uncertainty (1-sigma)   Units 
e .1419255167094202 3.561e-08  
a 2.919607877754782 1.2171e-08 au
q 2.505241021115541 1.0589e-07 au
i 11.15723816982757 3.2629e-06 deg
node 245.7543273475532 2.0456e-05 deg
peri 35.7656874552146 2.4419e-05 deg
M 9.705376735343279 1.231e-05 deg
tp 2458951.375842575540
(2020-Apr-11.87584258)
6.2358e-05 TDB
period 1822.154580399191
4.99
1.1394e-05
3.12e-08
d
yr
n .197568309446684 1.2354e-09 deg/d
Q 3.333974734394023 1.3898e-08 au
  Orbit Determination Parameters
   # obs. used (total)      2304  
   data-arc span      12427 days (34.02 yr)  
   first obs. used      1986-11-03  
   last obs. used      2020-11-11  
   planetary ephem.      DE431  
   SB-pert. ephem.      SB431-N16  
   condition code      0  
   norm. resid. RMS      .44593  
   source      ORB  
   producer      Otto Matic  
   solution date      2020-Dec-18 03:05:15  

Additional Information
 Earth MOID = 1.4984 au 
 Jupiter MOID = 1.80274 au 
 T_jup = 3.237 
[ show covariance matrix ]

Ephemeris | Orbit Diagram | Orbital Elements | Mission Design | Physical Parameters | Discovery Circumstances | Close-Approach Data ]

Physical Parameter Table
Parameter Symbol Value Units Sigma Reference Notes
absolute magnitude H 12.6   n/a MPO347660  
diameter diameter 7.443 km 0.083 urn:nasa:pds:neowise_diameters_albedos::2.0[mainbelt] (http://adsabs.harvard.edu/abs/2011ApJ...741...68M)  
rotation period rot_per 37.1204 h n/a LCDB (Rev. 2020-October); Warner et al., 2009 Result based on less than full coverage, so that the period may be wrong by 30 percent or so.
Published Reference List:
[Pal, A.; Szakats, R.; Kiss, C.; Bodi, A.; et al. (2019) Ap. J. Supl. Ser. 247, id.26.]
geometric albedo albedo 0.384   0.056 urn:nasa:pds:neowise_diameters_albedos::2.0[mainbelt] (http://adsabs.harvard.edu/abs/2011ApJ...741...68M)  

17282 (2000 LS34)          Discovered 2000-Jun-03 by Spacewatch at Kitt Peak
Reference: 20000913/Numbers.arcLast Updated: 2004-04-19

[ hide close-approach data ]
Close-Approach Data   ...sorted by Date/Time (TDB)
Date/Time (TDB) Time Uncertainty
(days_HH:MM)
Body Nominal Distance (au) Minimum Distance (au) Maximum Distance (au) V-relative (km/s) V-infinity (km/s) JD (TDB) Time Uncertainty (minutes) Semi-major axis (km) Semi-minor axis (km) range-LOV angle (deg) N-sigma BP Orbit Ref. Reference Modified
1916-Dec-15 16:20 00:02 Jupiter 1.97318822063738 1.9731872961649 1.97318914511334 3.79731279926056 3.68253344800602 2421213.180383117 1.85462590328732 146.536192655113 13.5573626265668 -72.5801125846869 4624983.79202919 T 34 CATAB v2.0f-lin.ifort 2020-Dec-18 03:05:21 2020-Dec-18 03:05
1942-Dec-14 21:18 00:01 Jupiter 1.98783183718239 1.98783099950742 1.98783267485758 3.30271679191225 3.17107722903107 2430708.387257314 1.37781119092019 99.1518828226268 41.2274225067002 -79.8479337362409 3815278.25725039 T 34 CATAB v2.0f-lin.ifort 2020-Dec-18 03:05:21 2020-Dec-18 03:05
1977-May-06 12:34 < 00:01 Jupiter 1.79938333802799 1.79938305755132 1.79938361850467 3.72255629896981 3.59387906530177 2443270.023482628 0.681883709220891 85.0796071301575 12.795809288319 -89.5939632646854 4337707.69178095 T 34 CATAB v2.0f-lin.ifort 2020-Dec-18 03:05:21 2020-Dec-18 03:05
2037-Sep-23 05:53 < 00:01 Jupiter 1.95275718576077 1.95275674133533 1.95275763018621 3.30509523406522 3.17114176267203 2465324.745390907 0.475798078470228 90.4025140918436 20.8648620434503 -84.8701555591616 3808806.90355804 T 34 CATAB v2.0f-lin.ifort 2020-Dec-18 03:05:21 2020-Dec-18 03:05
2072-Feb-15 08:51 00:01 Jupiter 1.80515692526103 1.805156587417 1.8051572631065 3.75738068783806 3.63035289163845 2477887.868555982 1.0470547646184 124.957990735883 11.1452974979953 -85.2627454476271 4310199.36358877 T 34 CATAB v2.0f-lin.ifort 2020-Dec-18 03:05:21 2020-Dec-18 03:05
2132-Jul-03 22:13 00:02 Jupiter 1.92077069559267 1.92076963818514 1.92077175300086 3.31626625647644 3.18051266085866 2499941.425520174 2.22464935499479 109.518548165735 49.1736330924541 71.5367091283749 3507530.57380839 T 34 CATAB v2.0f-lin.ifort 2020-Dec-18 03:05:21 2020-Dec-18 03:05
2166-Nov-27 00:54 00:03 Jupiter 1.82263321006708 1.82263252566503 1.82263389448508 3.80878401896783 3.68475053080532 2512505.537353263 2.740775808183 297.417026877178 11.114738954446 -84.399501946815 4436489.33970598 T 34 CATAB v2.0f-lin.ifort 2020-Dec-18 03:05:21 2020-Dec-18 03:05

Alternate Designations
 2000 LS34 = 1986 VF7 = 1999 GC60 
Ephemeris | Orbit Diagram | Orbital Elements | Mission Design | Physical Parameters | Discovery Circumstances | Close-Approach Data ]
ABOUT SSD CREDITS/AWARDS PRIVACY/COPYRIGHT GLOSSARY LINKS
FirstGov 2021-Jan-19 21:43 UT
(server date/time)  
NASA Home Page
Site Manager:   Ryan S. Park
Webmaster  Alan B. Chamberlin